Regional Weather Roundup
Issued by NWS

Home | Current Version | Previous Version | Graphics & Text | Print | Product List | Glossary On
Versions: 1 2 3 4 5 6 7 8 9 10 11 12 13 14 15 16 17 18 19 20 21 22 23 24 25 26 27 28 29 30 31 32 33 34 35 36 37 38 39 40 41 42 43 44 45 46 47 48 49 50
000
ASUS43 KDMX 171906
RWRIA

WEATHER ROUNDUP FOR IOWA
NATIONAL WEATHER SERVICE DES MOINES IA
100 PM CST WED JAN 17 2018

NOTE: "FAIR" INDICATES FEW OR NO CLOUDS BELOW 12,000 FEET WITH NO
SIGNIFICANT WEATHER AND/OR OBSTRUCTIONS TO VISIBILITY.

* - THESE STATIONS ARE NOT NWS STATIONS...THUS NOT UNDER NWS
QUALITY CONTROL.  THEY ALSO DO NOT REPORT WEATHER SUCH
AS PRECIPITATION OR FOG.

IAZ001>003-012>014-020>022-031>034-043>046-172000-
   NORTHWEST IOWA

CITY           SKY/WX    TMP DP  RH WIND       PRES   REMARKS
CARROLL *      SUNNY     21  10  63 SW23      30.36F WCI   5
CHEROKEE *     SUNNY     24  12  60 SW17G23   30.32F WCI  11
DENISON *      SUNNY     25  10  54 SW18G29   30.38F WCI  11
LE MARS *      SUNNY     27  14  59 S13G18    30.31F WCI  16
ORANGE CITY *  SUNNY     25  16  68 SW16      30.28F WCI  12
SHELDON *      SUNNY     23  12  63 SW16      30.26F WCI  10
SIOUX CITY     SUNNY     28  13  53 SW16      30.36F WCI  16
SPENCER        SUNNY     23  11  60 SW18      30.28F WCI   9
STORM LAKE *   SUNNY     23  12  63 SW21G26   30.30F WCI   8
$$

IAZ055>058-069>071-079>083-090>094-172000-
   SOUTHWEST IOWA

CITY           SKY/WX    TMP DP  RH WIND       PRES   REMARKS
ATLANTIC *     SUNNY     21   9  58 SW16G23   30.44F WCI   7
AUDUBON *      SUNNY     21   9  58 SW13G20   30.40F WCI   9
CLARINDA *     SUNNY     21   9  58 SW17      30.52  WCI   7
COUNCIL BLFS * SUNNY     21  10  63 S13       30.43F WCI   9
CRESTON *      SUNNY     19   7  58 SW17G25   30.46F WCI   4
HARLAN  *      SUNNY     19   9  63 SW17      30.45F WCI   4
LAMONI         SUNNY     20   7  57 SW20      30.49F WCI   4
RED OAK *      SUNNY     21   9  58 S13G21    30.48F WCI   9
SHENANDOAH *   SUNNY     21   9  58 SW16      30.50F WCI   7
$$

IAZ047>049-059>061-072>074-084-172000-
   CENTRAL IOWA

CITY           SKY/WX    TMP DP  RH WIND       PRES   REMARKS
AMES           SUNNY     21  11  65 SW18      30.41F WCI   6
ANKENY *       SUNNY     23   7  50 SW13G23   30.45F WCI  11
BOONE *        SUNNY     21   9  58 SW16G24   30.37F WCI   7
CHARITON *     SUNNY     21   7  53 SW21G28   30.47F WCI   6
DES MOINES     MOSUNNY   22   8  55 SW15      30.44F WCI   9
GRINNELL*      SUNNY     19   8  64 SW17      30.46F WCI   3
KNOXVILLE *    SUNNY     21   5  49 SW16      30.45F WCI   7
MARSHALLTOWN   SUNNY     20   8  60 SW17      30.40F WCI   5
NEWTON *       SUNNY     19   7  58 SW15G23   30.45F WCI   5
PELLA *        SUNNY     22   7  51 SW14G20   30.48F WCI  10
PERRY *          N/A     22  11  60 SW16      30.42F WCI   9
$$

IAZ004>006-015-016-023>025-035-036-172000-
   NORTH CENTRAL IOWA

CITY           SKY/WX    TMP DP  RH WIND       PRES   REMARKS
ALGONA *       SUNNY     23  18  80 SW18G25   30.28F WCI   9
CLARION *      SUNNY     21  12  68 SW20G26   30.33F WCI   6
ESTHERVILLE    SUNNY     22  12  65 SW22G29   30.24F WCI   6
FORT DODGE *   SUNNY     24  10  55 SW21G28   30.34F WCI   9
MASON CITY     SUNNY     20   8  60 SW21G30   30.30F WCI   4
FOREST CITY *    N/A     23  12  63 SW17G24   30.29F WCI   9
WEBSTER CITY * SUNNY     23   9  54 SW22      30.33F WCI   8
IOWA FALLS *     N/A     21  11  65 SW21      30.37F HAZE    WCI   6
$$

IAZ007>011-017>019-026>030-037>042-050>054-066-172000-
   NORTHEAST IOWA

CITY           SKY/WX    TMP DP  RH WIND       PRES   REMARKS
CEDAR RAPIDS     N/A     20   8  60 SW15      30.44F WCI   6
CHARLES CITY *   N/A     19   7  58 SW17G25   30.33F WCI   4
CLINTON *        N/A     18  11  74 W16       30.48F WCI   3
DECORAH *        N/A     19   7  58 SW10G18   30.31F WCI   8
DUBUQUE          N/A     17   8  67 SW18      30.39F WCI   1
MONTICELLO *     N/A     21   9  58 SW15      30.43F WCI   8
OELWEIN *        N/A     19   9  63 SW23      30.37F WCI   2
WATERLOO         N/A     19   6  57 SW21G28   30.40F WCI   3
$$

IAZ064-065-067-068-078-172000-
   EAST CENTRAL IOWA

CITY           SKY/WX    TMP DP  RH WIND       PRES   REMARKS
DAVENPORT        N/A     19   9  65 SW15      30.49F WCI   5
IOWA CITY        N/A     19   8  62 SW12      30.50F WCI   7
MT. PLEASANT * SUNNY     19  10  68 SW15      30.51F WCI   5
MUSCATINE *      N/A     19   9  63 SW13      30.52F WCI   7
QUAD CITIES      N/A     19   9  65 SW15      30.49F WCI   5
$$

IAZ062-063-075>077-085>089-095>099-172000-
   SOUTHEAST IOWA

CITY           SKY/WX    TMP DP  RH WIND       PRES   REMARKS
BURLINGTON     SUNNY     17   9  70 SW10      30.53F WCI   5
FAIRFIELD *    SUNNY     21   9  58 SW14      30.50F WCI   8
FORT MADISON * SUNNY     19  10  68 SW9       30.54F WCI   9
KEOKUK *       SUNNY     18   9  68 SW12      30.55F WCI   5
OSKALOOSA *      N/A     22  12  64 W17       30.48F WCI   8
OTTUMWA        SUNNY     22   9  57 SW16      30.49F WCI   8
WASHINGTON *   SUNNY     19  12  73 SW14G21   30.50F WCI   6
$$

ABBREVIATIONS USED IN REMARKS
   TC - TEMPERATURES IN CELSIUS
  WCI - WIND CHILL INDEX
   HX - HEAT INDEX
  VSB - VISIBILITY
$$





USA.gov is the U.S. government's official web portal to all federal, state and local government web resources and services.